User: anonymous   Login
Location: Unspecified
(0.0000°N, 0.0000°E)
Time: 20:23:51
(UTC+00:00)
Language:

AUBIESAT-1 - Orbit

View from above orbital plane
View from above orbital plane
View from above satellite
View from above satellite

Ground track
Ground track

The orbit data is extracted from the following two-line orbital elements,

1 37854U 11061E   17022.40803464  .00002930  00000-0  16479-3 0  9991
2 37854 101.7042 181.8631 0169494 146.2613 214.9524 15.03498756285020
Epoch (UTC): 22 January 2017 09:47:34
Eccentricity: 0.0169494
inclination: 101.7042°
perigee height: 438 km
apogee height: 673 km
right ascension of ascending node: 181.8631°
argument of perigee: 146.2613°
revolutions per day: 15.03498756
mean anomaly at epoch: 214.9524°
orbit number at epoch: 28502

The dashed part of the orbit path shows where the satellite is in the earth's shadow,  

DLR